Weather in Khovu-Aksu

Russia / Tyva Republic     51°07′55″N   93°42′52″E
temp.,
°C
wind,
m/s
gust,
m/s
humid.,
%
clouds,
%
prec.,
mm/h
press.,
hPa
HPBL,
m
24 june, thu
thu2401:00+9wnw1188100 1.3 101110
04:00+8w118932 0.0 101112
07:00+10ese11800 0.0 1010280
10:00+14ne23625 0.0 1007953
13:00+18ene34466 0.1 10041482
16:00+20sw352811 0.0 10022597
19:00+20e223941 0.0 100070
22:00+13s2246100 0.0 100211
25 june, fri
fri2501:00+11ssw22495 0.0 100111
04:00+10ssw1149100 0.0 100011
07:00+13nw1150100 0.0 100190
10:00+18nne2141100 0.0 1000528
13:00+20n434452 0.0 1000900
16:00+20nnw854712 0.0 9991252
19:00+9nw3891100 2.8 1007524
22:00+8wsw2392100 1.8 1012355
26 june, sat
sat2601:00+6wsw229214 1.9 101322
04:00+4w22910 0.0 101516
07:00+8wnw1280100 0.0 1015241
10:00+12nne2362100 0.0 10131043
13:00+15ne325214 0.0 10111437
16:00+17ne32474 0.0 10091220
19:00+16ene33545 0.0 1009773
22:00+10w226846 0.0 101110
27 june, sun
sun2701:00+8w2276100 0.0 101214
04:00+7wsw228798 0.0 101419
07:00+10w237291 0.0 1014275
10:00+14nw4459100 0.0 10131279
13:00+16nnw4354100 0.0 10111632
16:00+17nnw3450100 0.0 10101608
19:00+16nw2455100 0.0 1010212
22:00+11wnw226699 0.0 101214
28 june, mon
mon2801:00+8wsw2271100 0.0 101315
04:00+7wsw327613 0.0 101424
07:00+11w24650 0.0 1013280
10:00+15nnw34473 0.0 10121444
13:00+18nnw34395 0.0 10101958
16:00+19nnw23375 0.0 10092138
19:00+17n34505 0.0 1010568
22:00+11wnw225641 0.0 101214